{"data":{"norad_id":66542,"epoch":"2026-09-20T17:00:28.824480Z","epoch_age_seconds":71765,"freshness":"FRESH","line1":"1 66542U 25265AC  26263.70866695  .00011666  00000+0  43283-3 0  9991","line2":"2 66542  42.9966 257.0334 0001013 227.1103 132.9664 15.27575697 46933","mean_motion":15.27575697,"eccentricity":0.0001013,"inclination_deg":42.9966,"raan_deg":257.0334,"arg_perigee_deg":227.1103,"mean_anomaly_deg":132.9664,"bstar":0.00043283,"rev_number":4693,"period_min":94.267014251929,"perigee_km":482.36694134314,"apogee_km":483.75702025665,"semimajor_km":6861.1989807999,"source":"CELESTRAK","updated_at":"2026-09-21T09:00:35.968749Z"}}